This is the latest recevied weather packets stored in our database for station/object EA3GKP-10. If no packets are shown the sender has not sent any weather packets the latest 10 day(s).
| Time | Temp. | Humidity | Pressure | Rain* | Wind** | Luminosity | Snow |
|---|---|---|---|---|---|---|---|
| 1777734633 | 21.67° C | - | - | 0 mm | 2.24 m/s, 8° | - | - |
| 1777734330 | 21.11° C | - | - | 0 mm | 2.24 m/s, 139° | - | - |
| 1777734028 | 20.56° C | - | - | 0 mm | 0 m/s | - | - |
| 1777733724 | 21.11° C | - | - | 0 mm | 0 m/s | - | - |
| 1777733119 | 22.22° C | - | - | 0 mm | 1.79 m/s, 143° | - | - |
| 1777732816 | 21.67° C | - | - | 0 mm | 1.34 m/s, 207° | - | - |
| 1777732514 | 20.56° C | - | - | 0 mm | 0 m/s | - | - |
| 1777731905 | 20.56° C | - | - | 0 mm | 1.79 m/s, 155° | - | - |
| 1777731299 | 22.78° C | - | - | 0 mm | 1.79 m/s, 46° | - | - |
| 1777730996 | 20.56° C | - | - | 0 mm | 2.24 m/s, 72° | - | - |
| 1777730693 | 21.11° C | - | - | 0 mm | 1.34 m/s, 135° | - | - |
| 1777730387 | 21.11° C | - | - | 0 mm | 3.13 m/s, 124° | - | - |
| 1777730084 | 21.11° C | - | - | 0 mm | 1.79 m/s, 114° | - | - |
| 1777729781 | 22.22° C | - | - | 0 mm | 1.34 m/s, 208° | - | - |
| 1777729475 | 21.11° C | - | - | 0 mm | 1.79 m/s, 131° | - | - |
| 1777728865 | 21.67° C | - | - | 0 mm | 1.34 m/s, 129° | - | - |
| 1777728562 | 20.56° C | - | - | 0 mm | 1.79 m/s, 122° | - | - |
| 1777728259 | 20.56° C | - | - | 0 mm | 2.68 m/s, 97° | - | - |
| 1777727956 | 21.11° C | - | - | 0 mm | 2.68 m/s, 212° | - | - |
| 1777727653 | 21.67° C | - | - | 0 mm | 2.24 m/s, 98° | - | - |
| 1777727351 | 22.22° C | - | - | 0 mm | 0.89 m/s, 117° | - | - |
| 1777727047 | 22.22° C | - | - | 0 mm | 0.89 m/s, 98° | - | - |
| 1777726744 | 22.22° C | - | - | 0 mm | 1.34 m/s, 118° | - | - |
| 1777726438 | 22.22° C | - | - | 0 mm | 1.79 m/s, 107° | - | - |
| 1777726136 | 22.22° C | - | - | 0 mm | 0.89 m/s, 134° | - | - |
* Rain latest hour (hover to see other rain measurements)
** Current wind speed in m/s (hover to see current wind gust speed)